Location: La Pernelle
(49.6188°N, 1.2999°W)
Time: 09:10:42
(UTC+00:00)

Cosmos 2263 Rocket - Pass Details

Date: 12 June 2021
Orbit: 822 x 850 km, 71.0° (Epoch: 03 August)

Event Time Altitude Azimuth Distance (km) Brightness Sun altitude
Rises 21:53:22 0° 325° (NW) 3,417 7.5 -11.5°
Reaches altitude 10° 21:55:59 10° 317° (NW) 2,480 6.1 -11.7°
Maximum altitude 22:01:06 36° 253° (WSW) 1,333 3.4 -12.1°
Drops below altitude 10° 22:06:12 10° 189° (S) 2,470 4.2 -12.5°
Enters shadow 22:06:15 10° 189° (S) 2,482 4.2 -12.5°
